TimeCST,TemperatureF,Dew PointF,Humidity,Sea Level PressureIn,VisibilityMPH,Wind Direction,Wind SpeedMPH,Gust SpeedMPH,PrecipitationIn,Events,Conditions,WindDirDegrees,DateUTC
12:15 AM,10.4,5.0,79,30.16,10.0,Calm,Calm,-,N/A,,Clear,0,2013-03-03 06:15:00
12:35 AM,10.4,5.0,79,30.16,10.0,Calm,Calm,-,N/A,,Scattered Clouds,0,2013-03-03 06:35:00
12:55 AM,8.6,5.0,85,30.16,10.0,Calm,Calm,-,N/A,,Scattered Clouds,0,2013-03-03 06:55:00
1:15 AM,8.6,5.0,85,30.16,10.0,Calm,Calm,-,N/A,,Clear,0,2013-03-03 07:15:00
1:35 AM,8.6,5.0,85,30.16,10.0,Calm,Calm,-,N/A,,Clear,0,2013-03-03 07:35:00
1:55 AM,10.4,5.0,79,30.15,10.0,Calm,Calm,-,N/A,,Clear,0,2013-03-03 07:55:00
2:15 AM,8.6,5.0,85,30.14,10.0,Calm,Calm,-,N/A,,Clear,0,2013-03-03 08:15:00
2:35 AM,6.8,3.2,85,30.14,10.0,Calm,Calm,-,N/A,,Clear,0,2013-03-03 08:35:00
3:15 AM,6.8,1.4,79,30.14,10.0,Calm,Calm,-,N/A,,Clear,0,2013-03-03 09:15:00
3:35 AM,8.6,3.2,79,30.14,10.0,Calm,Calm,-,N/A,,Clear,0,2013-03-03 09:35:00
3:55 AM,5.0,1.4,85,30.14,10.0,Calm,Calm,-,N/A,,Clear,0,2013-03-03 09:55:00
4:15 AM,3.2,-0.4,85,30.14,10.0,Calm,Calm,-,N/A,,Clear,0,2013-03-03 10:15:00
4:35 AM,5.0,1.4,85,30.14,10.0,Calm,Calm,-,N/A,,Clear,0,2013-03-03 10:35:00
4:55 AM,5.0,-0.4,78,30.14,10.0,Calm,Calm,-,N/A,,Clear,0,2013-03-03 10:55:00
5:15 AM,5.0,1.4,85,30.14,10.0,Calm,Calm,-,N/A,,Clear,0,2013-03-03 11:15:00
5:35 AM,5.0,1.4,85,30.14,10.0,Calm,Calm,-,N/A,,Clear,0,2013-03-03 11:35:00
6:15 AM,3.2,-0.4,85,30.14,10.0,Calm,Calm,-,N/A,,Clear,0,2013-03-03 12:15:00
6:35 AM,3.2,-2.2,78,30.15,10.0,Calm,Calm,-,N/A,,Clear,0,2013-03-03 12:35:00
6:55 AM,5.0,1.4,85,30.15,10.0,Calm,Calm,-,N/A,,Clear,0,2013-03-03 12:55:00
7:15 AM,3.2,-0.4,85,30.15,10.0,Calm,Calm,-,N/A,,Clear,0,2013-03-03 13:15:00
7:35 AM,5.0,1.4,85,30.15,10.0,Calm,Calm,-,N/A,,Clear,0,2013-03-03 13:35:00
8:15 AM,10.4,6.8,85,30.15,10.0,Calm,Calm,-,N/A,,Clear,0,2013-03-03 14:15:00
8:35 AM,12.2,8.6,85,30.15,10.0,Calm,Calm,-,N/A,,Clear,0,2013-03-03 14:35:00
8:55 AM,17.6,5.0,58,30.15,10.0,WNW,3.5,-,N/A,,Clear,290,2013-03-03 14:55:00
9:15 AM,19.4,5.0,54,30.14,10.0,Calm,Calm,-,N/A,,Clear,0,2013-03-03 15:15:00
9:35 AM,21.2,5.0,50,30.14,10.0,Calm,Calm,-,N/A,,Clear,0,2013-03-03 15:35:00
9:55 AM,23.0,6.8,50,30.14,10.0,Calm,Calm,-,N/A,,Clear,0,2013-03-03 15:55:00
10:15 AM,26.6,8.6,47,30.13,10.0,East,3.5,-,N/A,,Clear,90,2013-03-03 16:15:00
10:35 AM,26.6,8.6,47,30.13,10.0,East,3.5,-,N/A,,Clear,100,2013-03-03 16:35:00
10:55 AM,28.4,10.4,47,30.12,10.0,East,4.6,-,N/A,,Clear,90,2013-03-03 16:55:00
11:15 AM,28.4,10.4,47,30.12,10.0,East,4.6,-,N/A,,Clear,90,2013-03-03 17:15:00
11:35 AM,28.4,10.4,47,30.11,10.0,Calm,Calm,-,N/A,,Clear,0,2013-03-03 17:35:00
11:55 AM,28.4,8.6,43,30.11,10.0,Calm,Calm,-,N/A,,Clear,0,2013-03-03 17:55:00
12:15 PM,30.2,8.6,40,30.10,10.0,Calm,Calm,-,N/A,,Clear,0,2013-03-03 18:15:00
12:35 PM,32.0,8.6,38,30.09,10.0,East,3.5,-,N/A,,Clear,90,2013-03-03 18:35:00
12:55 PM,30.2,8.6,40,30.09,10.0,SSE,3.5,-,N/A,,Clear,150,2013-03-03 18:55:00
1:15 PM,30.2,8.6,40,30.08,10.0,WSW,5.8,-,N/A,,Clear,250,2013-03-03 19:15:00
1:35 PM,30.2,6.8,37,30.07,10.0,Calm,Calm,-,N/A,,Clear,0,2013-03-03 19:35:00
2:15 PM,30.2,5.0,34,30.06,10.0,Calm,Calm,-,N/A,,Clear,0,2013-03-03 20:15:00
2:35 PM,32.0,8.6,38,30.06,10.0,SE,3.5,-,N/A,,Clear,130,2013-03-03 20:35:00
2:55 PM,32.0,8.6,38,30.06,10.0,Calm,Calm,-,N/A,,Clear,0,2013-03-03 20:55:00
3:15 PM,32.0,5.0,32,30.06,10.0,Calm,Calm,-,N/A,,Clear,0,2013-03-03 21:15:00
3:35 PM,32.0,5.0,32,30.06,10.0,SW,3.5,-,N/A,,Clear,220,2013-03-03 21:35:00
3:55 PM,32.0,5.0,32,30.06,10.0,Calm,Calm,-,N/A,,Clear,0,2013-03-03 21:55:00
4:15 PM,32.0,5.0,32,30.06,10.0,Calm,Calm,-,N/A,,Clear,0,2013-03-03 22:15:00
4:35 PM,32.0,5.0,32,30.06,10.0,SSE,3.5,-,N/A,,Clear,150,2013-03-03 22:35:00
4:55 PM,28.4,10.4,47,30.06,10.0,SSE,5.8,-,N/A,,Clear,150,2013-03-03 22:55:00
5:15 PM,28.4,10.4,47,30.06,10.0,South,5.8,-,N/A,,Clear,170,2013-03-03 23:15:00
5:35 PM,28.4,10.4,47,30.06,10.0,SSE,3.5,-,N/A,,Clear,160,2013-03-03 23:35:00
5:55 PM,28.4,10.4,47,30.07,10.0,Calm,Calm,-,N/A,,Clear,0,2013-03-03 23:55:00
6:15 PM,26.6,10.4,51,30.07,10.0,Calm,Calm,-,N/A,,Clear,0,2013-03-04 00:15:00
6:35 PM,24.8,10.4,54,30.08,10.0,Calm,Calm,-,N/A,,Clear,0,2013-03-04 00:35:00
6:55 PM,19.4,8.6,63,30.08,10.0,Calm,Calm,-,N/A,,Clear,0,2013-03-04 00:55:00
7:35 PM,17.6,8.6,68,30.09,10.0,Calm,Calm,-,N/A,,Clear,0,2013-03-04 01:35:00
8:15 PM,15.8,8.6,73,30.08,10.0,Calm,Calm,-,N/A,,Clear,0,2013-03-04 02:15:00
8:35 PM,19.4,10.4,68,30.09,10.0,Calm,Calm,-,N/A,,Clear,0,2013-03-04 02:35:00
8:55 PM,19.4,10.4,68,30.09,10.0,Calm,Calm,-,N/A,,Clear,0,2013-03-04 02:55:00
9:15 PM,21.2,10.4,63,30.10,10.0,WSW,3.5,-,N/A,,Clear,240,2013-03-04 03:15:00
9:35 PM,21.2,10.4,63,30.10,10.0,Calm,Calm,-,N/A,,Clear,0,2013-03-04 03:35:00
9:55 PM,17.6,8.6,68,30.10,10.0,Calm,Calm,-,N/A,,Clear,0,2013-03-04 03:55:00
10:15 PM,14.0,8.6,79,30.10,10.0,Calm,Calm,-,N/A,,Clear,0,2013-03-04 04:15:00
10:35 PM,14.0,8.6,79,30.10,10.0,Calm,Calm,-,N/A,,Clear,0,2013-03-04 04:35:00
10:55 PM,12.2,6.8,79,30.10,10.0,Calm,Calm,-,N/A,,Clear,0,2013-03-04 04:55:00
11:15 PM,8.6,3.2,79,30.10,10.0,Calm,Calm,-,N/A,,Clear,0,2013-03-04 05:15:00
11:35 PM,8.6,3.2,79,30.10,10.0,Calm,Calm,-,N/A,,Clear,0,2013-03-04 05:35:00
11:55 PM,8.6,3.2,79,30.11,10.0,North,3.5,-,N/A,,Clear,360,2013-03-04 05:55:00